Ellsworth AFB, SD

8:34 AM MST on February 20, 2017 (GMT -0700)
Ellsworth Air Force Base

Weather History for KRCA - April, 2014

Change the Weather History Date:

Monday, April 7, 2014

  Actual Average Record
Temperature  
Mean Temperature 46 °F -  
Max Temperature 54 °F 51 °F 78 °F (2005)
Min Temperature 39 °F 29 °F 11 °F (2007)
Degree Days  
Heating Degree Days 19    
Moisture  
Dew Point 29 °F    
Average Humidity 55    
Maximum Humidity 87    
Minimum Humidity 30    
Precipitation  
Precipitation 0.00 in - - ()
Sea Level Pressure  
Sea Level Pressure 30.05 in    
Wind  
Wind Speed 18 mph (NNW)    
Max Wind Speed 33 mph    
Max Gust Speed 44 mph    
Visibility 10 miles    
Events      
Averages and records for this station are not official NWS values.
T = Trace of Precipitation, MM = Missing Value Source: NWS Daily Summary

Daily Weather History Graph

Daily Weather History Graph

Search for Another Location

Airport or City:

Trip Planner

Search our weather history database for the weather conditions in past years. The results will help you decide how hot, cold, wet, or windy it might be!

Date:

Astronomy

Apr. 07, 2014 Rise Set
Actual Time 6:22 AM MDT 7:26 PM MDT
Civil Twilight 5:53 AM MDT 7:56 PM MDT
Nautical Twilight 5:17 AM MDT 8:32 PM MDT
Astronomical Twilight 4:40 AM MDT 9:09 PM MDT
Moon 12:15 PM MDT (4/7) 2:11 AM MDT (4/7)
Length of Visible Light 14h 03m
Length of Day
13h 04m
First Quarter, 54% of the Moon is Illuminated
Apr 7
First Quarter
Apr 15
Full
Apr 22
Last Quarter
Apr 29
New
May 6
First Quarter

Hourly Weather History & Observations

Time (MDT) Temp. Windchill Dew Point Humidity Pressure Visibility Wind Dir Wind Speed Gust Speed Precip Events Conditions
12:58 AM 41.2 °F 35.0 °F 32.0 °F 70% 29.94 in 10.0 mi NW 10.4 mph - N/A   Mostly Cloudy
1:58 AM 41.4 °F 35.2 °F 32.4 °F 70% 29.96 in 10.0 mi NW 10.4 mph - N/A   Mostly Cloudy
2:58 AM 39.9 °F 32.5 °F 32.2 °F 74% 29.95 in 10.0 mi NW 12.7 mph - N/A   Clear
3:53 AM 41.0 °F 31.9 °F 35.6 °F 81% 29.94 in 10.0 mi North 19.6 mph - N/A   Overcast
3:58 AM 40.1 °F 30.7 °F 35.8 °F 85% 29.97 in 10.0 mi North 19.6 mph 26.5 mph N/A   Overcast
4:33 AM 39.2 °F 29.8 °F 35.6 °F 87% 29.95 in 10.0 mi NNW 18.4 mph 24.2 mph N/A   Overcast
4:58 AM 39.9 °F 30.2 °F 34.0 °F 79% 29.98 in 10.0 mi NNW 20.7 mph 28.8 mph N/A   Overcast
5:28 AM 41.0 °F 30.9 °F 32.0 °F 70% 29.96 in 10.0 mi NNW 24.2 mph 27.6 mph N/A   Mostly Cloudy
5:43 AM 41.0 °F 30.9 °F 32.0 °F 70% 29.96 in 10.0 mi NNW 24.2 mph 34.5 mph N/A   Mostly Cloudy
5:58 AM 40.6 °F 32.0 °F 32.7 °F 73% 30.01 in 10.0 mi NNW 17.3 mph - N/A   Scattered Clouds
6:58 AM 40.1 °F 29.9 °F 31.6 °F 72% 30.04 in 10.0 mi NNW 23.0 mph 28.8 mph N/A   Clear
7:58 AM 43.2 °F 33.6 °F 30.9 °F 62% 30.05 in 10.0 mi NNW 25.3 mph 33.4 mph N/A   Clear
8:58 AM 45.3 °F 35.9 °F 30.0 °F 55% 30.09 in 10.0 mi NNW 28.8 mph 38.0 mph N/A   Clear
9:58 AM 47.3 °F - 30.0 °F 51% 30.09 in 10.0 mi NNW 31.1 mph 43.7 mph N/A   Clear
10:58 AM 48.4 °F - 28.6 °F 46% 30.09 in 10.0 mi NNW 28.8 mph 38.0 mph N/A   Partly Cloudy
11:58 AM 50.0 °F - 27.1 °F 41% 30.09 in 10.0 mi NNW 31.1 mph 43.7 mph N/A   Partly Cloudy
12:00 PM 50.0 °F - 26.6 °F 40% 30.06 in 10.0 mi North 29.9 mph 39.1 mph N/A   Squalls
12:58 PM 50.7 °F - 26.8 °F 40% 30.09 in 10.0 mi NNW 33.4 mph 41.4 mph N/A   Scattered Clouds
1:58 PM 52.0 °F - 25.9 °F 36% 30.11 in 10.0 mi North 25.3 mph 32.2 mph N/A   Mostly Cloudy
2:58 PM 50.7 °F - 24.6 °F 36% 30.09 in 10.0 mi NNW 23.0 mph 28.8 mph N/A   Overcast
3:20 PM 53.6 °F - 23.0 °F 30% 30.06 in 10.0 mi NNW 25.3 mph 35.7 mph N/A   Light Drizzle
3:29 PM 53.6 °F - 23.0 °F 30% 30.06 in 10.0 mi NNW 20.7 mph 33.4 mph N/A   Overcast
3:58 PM 51.8 °F - 22.8 °F 32% 30.09 in 10.0 mi NNW 23.0 mph 32.2 mph 0.00 in   Mostly Cloudy
4:58 PM 53.2 °F - 23.7 °F 32% 30.09 in 10.0 mi NNW 23.0 mph 32.2 mph N/A   Mostly Cloudy
5:58 PM 52.2 °F - 24.1 °F 34% 30.09 in 10.0 mi North 16.1 mph 25.3 mph N/A   Partly Cloudy
6:58 PM 50.5 °F - 24.4 °F 36% 30.09 in 10.0 mi North 10.4 mph - N/A   Clear
7:58 PM 43.2 °F 37.9 °F 27.0 °F 53% 30.12 in 10.0 mi NW 9.2 mph - N/A   Mostly Cloudy
8:58 PM 41.5 °F 35.4 °F 26.2 °F 55% 30.13 in 10.0 mi NW 10.4 mph - N/A   Mostly Cloudy
9:58 PM 43.3 °F 38.6 °F 25.2 °F 49% 30.12 in 10.0 mi NNW 8.1 mph - N/A   Mostly Cloudy
10:58 PM 40.5 °F 36.5 °F 25.3 °F 55% 30.12 in 10.0 mi NNW 5.8 mph - N/A   Mostly Cloudy
11:58 PM 42.1 °F 38.4 °F 24.4 °F 50% 30.13 in 10.0 mi NNW 5.8 mph - N/A   Clear